Snowfall_Accumulation
0.0 0.0 0.0 0.0 0.0 0.0 0.0 0.0 0.0 0.0 0.0 0.0 0.0 0.0 0.0 0.0 0.0 0.0 0.0 nan nan nan nan nan nan nan nan nan nan nan nan nan nan nan nan nan nan nan
0.0 0.0 0.0 0.0 0.0 0.0 0.0 0.0 0.0 0.0 0.0 0.0 0.0 0.0 0.0 0.0 0.0 0.0 0.0 nan nan nan nan nan nan nan nan nan nan nan nan nan nan nan nan nan nan nan
0.0 0.0 0.0 0.0 0.0 0.0 0.0 0.0 0.0 0.0 0.0 0.0 0.0 0.0 0.0 0.0 0.0 0.0 0.0 0.0 0.0 nan nan nan nan nan nan nan nan nan nan nan nan nan nan nan nan nan
0.0 0.0 0.0 0.0 0.0 0.0 0.0 0.0 0.0 0.0 0.0 0.0 0.0 0.0 0.0 0.0 0.0 0.0 0.0 0.0 0.0 nan nan nan nan nan nan nan nan nan nan nan nan nan nan nan nan nan
0.0 0.0 0.0 0.0 0.0 0.0 0.0 0.0 0.0 0.0 0.0 0.0 0.0 0.0 0.0 0.0 0.0 0.0 0.0 0.0 0.0 nan nan nan nan nan nan nan nan nan nan nan nan nan nan nan nan nan
0.0 0.0 0.0 0.0 0.0 0.0 0.0 0.0 0.0 0.0 0.0 0.0 0.0 0.0 0.0 0.0 0.0 0.0 0.0 0.0 0.0 0.0 nan nan nan nan nan nan nan nan nan nan nan nan nan nan nan nan
0.0 0.0 0.0 nan nan nan 0.0 0.0 0.0 0.0 0.0 0.0 0.0 0.0 0.0 0.0 0.0 0.0 0.0 0.0 0.0 0.0 0.0 0.0 0.0 0.0 0.0 nan nan nan nan nan nan nan nan nan nan nan
0.0 0.0 0.0 0.0 0.0 nan nan nan nan 0.0 0.0 0.0 0.0 0.0 0.0 0.0 0.0 0.0 0.0 0.0 0.0 0.0 0.0 0.0 0.0 0.0 0.0 0.0 nan nan nan nan nan nan nan nan nan nan
0.0 0.0 0.0 0.0 nan 0.0 nan nan nan nan nan 0.0 0.0 0.0 0.0 0.0 0.0 0.0 0.0 0.0 0.0 0.0 0.0 0.0 0.0 0.0 0.0 0.0 nan nan nan nan nan nan nan nan nan nan
0.0 0.0 0.0 0.0 0.0 0.0 0.0 0.0 0.0 0.0 0.0 0.0 0.0 0.0 0.0 0.0 0.0 0.0 0.0 0.0 0.0 0.0 0.0 0.0 0.0 0.0 0.0 0.0 nan nan nan nan nan nan nan nan nan nan
0.0 0.0 0.0 0.0 nan nan 0.0 0.0 0.0 0.0 nan nan nan nan nan nan nan 0.0 0.0 0.0 0.1 0.0 0.0 0.0 0.1 0.1 0.0 0.0 0.0 nan nan nan nan nan nan nan nan nan
0.0 0.0 nan 0.0 nan nan 0.0 0.0 0.0 0.0 0.0 0.0 0.0 0.0 nan nan nan 0.0 0.0 0.0 0.1 0.2 0.0 0.2 0.1 0.1 0.3 0.0 0.0 0.0 0.0 nan nan nan nan nan nan 0.0
0.0 0.0 0.0 nan nan nan nan 0.0 0.0 0.0 0.0 0.0 0.0 0.0 0.0 0.0 0.0 0.0 0.0 0.0 0.0 0.0 0.0 0.0 0.1 0.1 0.1 0.2 0.1 0.0 0.0 0.0 0.0 0.0 nan nan nan 0.0
0.0 0.0 0.0 nan nan nan 0.0 nan nan 0.0 0.2 0.2 0.2 0.1 0.0 0.0 0.0 0.0 0.0 0.0 0.0 0.0 0.0 0.0 0.1 0.0 0.2 0.3 0.2 0.0 0.0 0.0 0.0 0.0 0.0 nan nan nan
0.0 0.0 nan nan nan 0.0 nan nan 0.0 0.1 0.1 0.2 0.1 0.1 0.1 0.0 0.0 0.0 0.0 0.0 0.0 0.0 0.0 0.0 0.0 0.0 0.1 0.2 0.2 0.2 0.2 0.0 0.0 0.0 0.0 0.0 0.0 0.0
0.0 0.1 0.0 0.1 0.0 0.0 0.1 0.0 0.0 0.0 0.0 0.0 0.0 0.0 0.0 0.0 0.0 0.0 0.1 0.1 0.2 0.2 0.0 0.0 0.0 0.0 0.3 0.2 0.1 0.2 0.1 0.3 0.0 0.0 0.0 0.0 0.0 0.0
0.1 0.2 0.2 0.2 0.2 0.2 0.1 0.1 0.0 0.0 0.0 0.0 0.0 0.0 0.0 0.0 0.0 0.0 0.0 0.1 0.2 0.2 0.2 0.1 0.0 0.0 0.1 0.0 0.5 0.2 0.2 0.2 0.0 0.1 0.2 0.2 0.0 0.0
0.2 0.3 0.4 0.3 0.2 0.1 0.1 0.1 0.0 0.0 0.0 0.0 0.0 0.0 0.0 0.0 0.1 0.1 0.0 0.1 0.2 0.2 0.2 0.2 0.2 0.3 0.3 0.3 0.2 0.3 0.2 0.3 0.2 0.1 0.2 0.4 0.3 0.1
0.2 0.2 0.3 0.3 0.2 0.1 0.1 0.1 0.2 0.1 0.0 0.0 0.1 0.2 0.2 0.1 0.2 0.2 0.2 0.2 0.3 0.3 0.3 0.2 0.3 0.4 2.3 2.8 0.4 nan 0.5 0.3 0.3 0.5 0.2 0.3 0.4 0.3
0.2 0.4 0.5 0.3 0.2 0.2 0.2 0.2 0.2 0.1 0.1 0.1 0.2 0.2 0.3 0.3 0.3 0.4 0.3 0.4 0.5 0.5 0.5 0.3 0.3 0.4 1.1 1.6 3.0 0.4 nan 0.4 0.3 0.4 0.4 0.2 0.2 nan
0.5 0.6 0.5 0.4 0.4 0.3 0.3 0.3 0.2 0.4 0.4 0.4 0.3 0.5 0.9 0.4 0.6 0.5 0.4 0.2 0.2 0.4 0.5 0.4 0.2 0.0 0.1 0.2 3.9 0.8 0.2 nan 0.0 0.2 0.1 0.3 0.6 0.5
0.4 0.5 0.4 0.5 0.8 0.6 0.5 0.6 0.5 0.6 0.4 0.4 0.6 1.1 0.9 0.4 0.6 0.6 0.5 0.6 0.5 0.4 0.4 0.3 0.2 0.2 0.2 0.3 0.6 0.9 0.4 0.2 nan nan nan nan 0.8 2.9
0.6 0.4 0.4 0.4 0.4 0.6 0.7 0.9 0.7 0.8 0.6 0.6 0.5 0.5 6.1 0.7 0.4 0.4 0.5 0.6 0.6 0.8 0.6 0.9 0.3 0.2 0.2 0.3 0.4 0.8 0.1 0.2 0.3 0.4 0.4 nan nan nan
Water_Equivalent
0.00 0.00 0.00 0.00 0.00 0.00 0.00 0.00 0.00 0.00 0.00 0.00 0.00 0.00 0.00 0.00 0.00 0.00 0.00 nan nan nan nan nan nan nan nan nan nan nan nan nan nan nan nan nan nan nan
0.00 0.00 0.00 0.00 0.00 0.00 0.00 0.00 0.00 0.00 0.00 0.00 0.00 0.00 0.00 0.00 0.00 0.00 0.00 nan nan nan nan nan nan nan nan nan nan nan nan nan nan nan nan nan nan nan
0.00 0.00 0.00 0.00 0.00 0.00 0.00 0.00 0.00 0.00 0.00 0.00 0.00 0.00 0.00 0.00 0.00 0.00 0.00 0.00 0.00 nan nan nan nan nan nan nan nan nan nan nan nan nan nan nan nan nan
0.00 0.00 0.00 0.00 0.00 0.00 0.00 0.00 0.00 0.00 0.00 0.00 0.00 0.00 0.00 0.00 0.00 0.00 0.00 0.00 0.00 nan nan nan nan nan nan nan nan nan nan nan nan nan nan nan nan nan
0.00 0.00 0.00 0.00 0.00 0.00 0.00 0.00 0.00 0.00 0.00 0.00 0.00 0.00 0.00 0.00 0.00 0.00 0.00 0.00 0.00 nan nan nan nan nan nan nan nan nan nan nan nan nan nan nan nan nan
0.00 0.00 0.00 0.00 0.00 0.00 0.00 0.00 0.00 0.00 0.00 0.00 0.00 0.00 0.00 0.00 0.00 0.00 0.00 0.00 0.00 0.00 nan nan nan nan nan nan nan nan nan nan nan nan nan nan nan nan
0.00 0.00 0.00 nan nan nan 0.00 0.00 0.00 0.00 0.00 0.00 0.00 0.00 0.00 0.00 0.00 0.00 0.00 0.00 0.00 0.00 0.00 0.00 0.00 0.00 0.00 nan nan nan nan nan nan nan nan nan nan nan
0.00 0.00 0.00 0.00 0.00 nan nan nan nan 0.00 0.00 0.00 0.00 0.00 0.00 0.00 0.00 0.00 0.00 0.00 0.00 0.00 0.00 0.00 0.00 0.00 0.00 0.00 nan nan nan nan nan nan nan nan nan nan
0.00 0.00 0.00 0.00 nan 0.00 nan nan nan nan nan 0.00 0.00 0.00 0.00 0.00 0.00 0.00 0.00 0.00 0.00 0.00 0.00 0.00 0.00 0.00 0.00 0.00 nan nan nan nan nan nan nan nan nan nan
0.00 0.00 0.00 0.00 0.00 0.00 0.00 0.00 0.00 0.00 0.00 0.00 0.00 0.00 0.00 0.00 0.00 0.00 0.00 0.00 0.00 0.00 0.00 0.02 0.00 0.00 0.00 0.00 nan nan nan nan nan nan nan nan nan nan
0.00 0.00 0.00 0.00 nan nan 0.00 0.00 0.00 0.00 nan nan nan nan nan nan nan 0.00 0.00 0.00 0.05 0.01 0.00 0.01 0.02 0.04 0.01 0.00 0.00 nan nan nan nan nan nan nan nan nan
0.00 0.00 nan 0.00 nan nan 0.00 0.00 0.00 0.00 0.00 0.00 0.00 0.00 nan nan nan 0.00 0.00 0.01 0.04 0.08 0.00 0.06 0.05 0.04 0.11 0.01 0.00 0.00 0.00 nan nan nan nan nan nan 0.00
0.00 0.00 0.00 nan nan nan nan 0.00 0.00 0.00 0.00 0.01 0.00 0.00 0.00 0.00 0.00 0.00 0.00 0.00 0.01 0.01 0.00 0.00 0.05 0.04 0.06 0.08 0.03 0.00 0.00 0.00 0.00 0.00 nan nan nan 0.00
0.00 0.00 0.01 nan nan nan 0.02 nan nan 0.01 0.06 0.08 0.06 0.04 0.01 0.00 0.00 0.00 0.00 0.00 0.00 0.00 0.00 0.00 0.04 0.01 0.07 0.10 0.08 0.02 0.00 0.00 0.00 0.00 0.00 nan nan nan
0.00 0.00 nan nan nan 0.00 nan nan 0.00 0.03 0.05 0.07 0.06 0.04 0.02 0.00 0.00 0.01 0.00 0.00 0.00 0.00 0.00 0.00 0.01 0.00 0.04 0.07 0.09 0.06 0.06 0.01 0.00 0.00 0.00 0.00 0.00 0.00
0.00 0.03 0.00 0.03 0.00 0.01 0.02 0.01 0.00 0.00 0.00 0.00 0.00 0.00 0.00 0.00 0.01 0.00 0.04 0.03 0.07 0.07 0.00 0.00 0.00 0.00 0.10 0.07 0.06 0.08 0.03 0.10 0.01 0.00 0.00 0.00 0.00 0.00
0.03 0.07 0.10 0.09 0.09 0.06 0.05 0.04 0.00 0.00 0.00 0.00 0.00 0.00 0.00 0.00 0.00 0.00 0.00 0.03 0.07 0.07 0.08 0.04 0.00 0.00 0.04 0.01 0.18 0.08 0.09 0.08 0.01 0.04 0.06 0.06 0.01 0.00
0.07 0.12 0.17 0.14 0.09 0.06 0.05 0.04 0.01 0.01 0.00 0.00 0.00 0.00 0.01 0.02 0.04 0.02 0.00 0.03 0.09 0.09 0.09 0.06 0.07 0.13 0.12 0.13 0.07 0.13 0.09 0.11 0.08 0.06 0.06 0.17 0.12 0.03
0.10 0.09 0.13 0.13 0.09 0.04 0.04 0.02 0.07 0.03 0.00 0.00 0.03 0.06 0.07 0.05 0.08 0.09 0.09 0.09 0.12 0.11 0.10 0.09 0.11 0.16 0.79 0.95 0.16 nan 0.19 0.13 0.14 0.18 0.09 0.11 0.16 0.11
0.08 0.15 0.17 0.12 0.08 0.06 0.06 0.09 0.05 0.05 0.05 0.04 0.06 0.10 0.12 0.11 0.13 0.15 0.13 0.16 0.18 0.21 0.21 0.13 0.11 0.15 0.36 0.51 1.09 0.15 nan 0.14 0.11 0.14 0.15 0.09 0.07 nan
0.15 0.19 0.18 0.16 0.14 0.09 0.10 0.11 0.08 0.14 0.14 0.16 0.11 0.19 0.36 0.16 0.24 0.19 0.17 0.09 0.09 0.16 0.20 0.15 0.09 0.00 0.05 0.09 1.52 0.31 0.10 nan 0.01 0.05 0.05 0.12 0.19 0.16
0.13 0.14 0.12 0.16 0.25 0.21 0.18 0.23 0.21 0.22 0.16 0.17 0.26 0.43 0.35 0.16 0.24 0.23 0.22 0.26 0.19 0.16 0.17 0.11 0.08 0.09 0.10 0.12 0.21 0.32 0.13 0.09 nan nan nan nan 0.24 0.71
0.17 0.13 0.13 0.12 0.13 0.18 0.21 0.26 0.22 0.26 0.23 0.23 0.20 0.20 2.46 0.27 0.15 0.14 0.19 0.23 0.23 0.30 0.25 0.35 0.12 0.09 0.10 0.10 0.15 0.25 0.03 0.07 0.12 0.13 0.15 nan nan nan
SL_Ratio
nan nan nan nan nan nan nan nan nan nan nan nan nan nan nan nan nan nan nan nan nan nan nan nan nan nan nan nan nan nan nan nan nan nan nan nan nan nan
nan nan nan nan nan nan nan nan nan nan nan nan nan nan nan nan nan nan nan nan nan nan nan nan nan nan nan nan nan nan nan nan nan nan nan nan nan nan
nan nan nan nan nan nan nan nan nan nan nan nan nan nan nan nan nan nan nan nan nan nan nan nan nan nan nan nan nan nan nan nan nan nan nan nan nan nan
nan nan nan nan nan nan nan nan nan nan nan nan nan nan nan nan nan nan nan nan nan nan nan nan nan nan nan nan nan nan nan nan nan nan nan nan nan nan
nan nan nan nan nan nan nan nan nan nan nan nan nan nan nan nan nan nan nan nan nan nan nan nan nan nan nan nan nan nan nan nan nan nan nan nan nan nan
nan nan nan nan nan nan nan nan nan nan nan nan nan nan nan nan nan nan nan nan nan nan nan nan nan nan nan nan nan nan nan nan nan nan nan nan nan nan
nan nan nan nan nan nan nan nan nan nan nan nan nan nan nan nan nan nan nan nan nan nan nan nan nan nan nan nan nan nan nan nan nan nan nan nan nan nan
nan nan nan nan nan nan nan nan nan nan nan nan nan nan nan nan nan nan nan nan nan nan nan nan nan nan nan nan nan nan nan nan nan nan nan nan nan nan
nan nan nan nan nan nan nan nan nan nan nan nan nan nan nan nan nan nan nan nan nan nan nan nan nan nan nan nan nan nan nan nan nan nan nan nan nan nan
nan nan nan nan nan nan nan nan nan nan nan nan nan nan nan nan nan nan nan nan nan nan nan 2.7 nan nan nan nan nan nan nan nan nan nan nan nan nan nan
nan nan nan nan nan nan nan nan nan nan nan nan nan nan nan nan nan nan nan nan 2.5 2.6 nan 2.5 2.4 2.5 2.7 nan nan nan nan nan nan nan nan nan nan nan
nan nan nan nan nan nan nan nan nan nan nan nan nan nan nan nan nan nan nan 2.3 2.5 2.5 nan 2.5 2.5 2.5 2.5 2.5 nan nan nan nan nan nan nan nan nan nan
nan nan nan nan nan nan nan nan nan nan nan 2.2 nan nan nan nan nan nan nan nan 2.6 2.6 nan 2.5 2.5 2.5 2.5 2.5 2.6 nan nan nan nan nan nan nan nan nan
nan nan 2.5 nan nan nan 2.5 nan nan 2.3 2.5 2.5 2.5 2.5 2.3 nan nan nan nan nan nan nan nan nan 2.5 2.6 2.5 2.5 2.5 2.4 nan nan nan nan nan nan nan nan
nan nan nan nan nan nan nan nan nan 2.4 2.5 2.5 2.5 2.5 2.6 2.5 nan 2.3 nan nan nan nan nan nan 2.8 2.5 2.5 2.5 2.5 2.5 2.5 2.8 nan nan nan nan 5.0 nan
2.5 2.5 nan 2.5 nan 2.4 2.6 2.3 nan nan nan 2.5 nan nan nan nan 2.6 2.5 2.5 2.5 2.5 2.5 nan nan nan nan 2.5 2.5 2.5 2.5 2.6 2.8 2.5 5.0 2.5 1.7 nan nan
2.6 2.5 2.5 2.5 2.5 2.5 2.5 2.5 2.5 nan 5.0 nan nan nan nan nan nan nan 2.5 2.4 2.5 2.5 2.5 2.5 nan nan 2.5 2.5 2.5 2.5 2.5 2.5 2.5 2.5 2.6 2.5 2.6 nan
2.5 2.5 2.5 2.5 2.6 2.5 2.5 2.5 2.5 2.5 nan nan nan nan 2.2 2.4 2.5 2.5 2.5 2.5 2.5 2.5 2.5 2.5 2.5 2.5 2.5 2.5 2.5 2.6 2.5 2.5 2.5 2.5 2.5 2.5 2.5 2.5
2.5 2.5 2.5 2.5 2.7 2.8 2.5 2.6 2.5 2.4 nan 1.3 2.4 2.5 2.5 2.5 2.5 2.5 2.5 2.5 2.5 2.5 2.5 2.5 2.5 2.5 2.9 2.9 2.5 nan 2.9 2.6 2.5 2.5 2.5 2.5 2.6 2.5
2.6 3.1 3.1 2.9 2.7 2.5 2.6 2.9 2.8 2.5 2.5 2.5 2.5 2.5 2.5 2.5 2.5 2.5 2.5 2.5 2.5 2.5 2.5 2.5 2.5 2.5 3.1 3.1 2.8 2.5 nan 2.7 2.6 2.7 2.8 2.5 2.5 nan
3.1 3.2 3.0 2.7 2.8 2.9 2.6 2.5 2.6 2.6 2.7 2.5 2.5 2.5 2.5 2.5 2.5 2.5 2.5 2.5 2.5 2.5 2.6 2.5 2.5 nan 2.5 2.5 2.6 2.5 2.5 nan 2.7 3.1 2.8 2.9 3.2 3.1
3.4 3.4 3.3 3.2 3.1 3.0 2.8 2.6 2.5 2.5 2.5 2.5 2.5 2.5 2.5 2.5 2.5 2.5 2.5 2.5 2.5 2.5 2.5 2.5 2.5 2.5 2.5 2.6 3.0 2.7 2.8 2.5 nan nan nan nan 3.5 4.1
3.5 3.5 3.3 3.2 3.3 3.4 3.6 3.3 3.3 3.2 2.8 2.7 2.6 2.5 2.5 2.5 2.5 2.5 2.5 2.5 2.5 2.5 2.5 2.6 2.5 2.5 2.5 2.6 2.8 3.1 3.8 2.9 2.8 2.8 2.8 nan nan nan